sat.trackr.live / text

‹ back to catalog

STARLINK-6306

NORAD 57242 · 2023-094AA

PAYLOAD ACTIVE UNKNOWN

§ Identity

Operator
Country
US
Launch date
2023-07-07
Launch site
AFWTR
Launch vehicle
Mass (kg)
RCS (m²)

Purposes: comms

External: N2YO · Heavens-Above · Gunter

§ Orbital elements

Epoch: 2026-09-20T17:04:19.797600Z

Period
94.27 min
Inclination
43.0048°
Eccentricity
0.0001340
Mean motion
15.27573260 rev/d
Perigee alt
482.1 km
Apogee alt
484.0 km
Semi-major
6,861.2 km
B*
-1.7885e-5
RAAN
358.7183°
Arg perigee
275.9202°
Mean anomaly
84.1497°
Rev number
17,706

§ Raw data

STARLINK-63061 57242U 23094AA  26263.71134025 -.00000754  00000+0 -17885-4 0  99902 57242  43.0048 358.7183 0001340 275.9202  84.1497 15.27573260177063

JSON: /api/v1/satellites/57242 · /tle

For live sub-satellite position, see the globe view (requires WebGL).

§ Visibility from observer

Set your observer location to see the next 7 days of passes ≥ 10°. The values pass through the URL so the page stays shareable.

No JS? Fill the form by hand. The geolocation button needs JavaScript.